ACA815 LFMN-CYUL

Flight info

Callsign ACA815
Flight time N/A
Altitude 34000
Route BADOD DCT NEDRU DCT LTP DCT BULOL DCT IDAVO DCT BAGBI DCT SIZZA DCT CHABY DCT AMODO DCT COHPA/N0466F280 UM729 RESMI UN491 LGL/N0474F360 UN502 JSY/N0474F380 DCT LIZAD DCT NAKID DCT EVCOR DCT LEDGO DCT NEBIN/M083F390 NATD IBERG/N0468F400 DCT MIILS DCT KEBIG ROCKT3
Aircraft A333/H-SDE3GHIJ2J3J5M1RVWXY/LB2D1

Departure

Time N/A
Airport Nice-Côte d'Azur Airport (LFMN)

Arrival

Time 2026-05-07 17:50
Airport Montreal / Pierre Elliott Trudeau International Airport (CYUL)
Time Latitude Longitude Altitude Speed Heading
2026-05-07 17:25 45.97486 -71.55888 27586 ft 388 kts 264°
2026-05-07 17:26 45.97387 -71.59696 27130 ft 384 kts 264°
2026-05-07 17:26 45.97286 -71.63528 26646 ft 380 kts 264°
2026-05-07 17:26 45.97184 -71.67275 26188 ft 375 kts 264°
2026-05-07 17:26 45.97084 -71.70982 25751 ft 370 kts 264°
2026-05-07 17:27 45.96984 -71.74636 25329 ft 364 kts 264°
2026-05-07 17:27 45.96885 -71.78223 24922 ft 359 kts 264°
2026-05-07 17:27 45.96786 -71.81756 24522 ft 353 kts 264°
2026-05-07 17:27 45.96687 -71.85276 24124 ft 347 kts 264°
2026-05-07 17:28 45.96589 -71.88669 23749 ft 341 kts 264°
2026-05-07 17:28 45.96491 -71.92057 23355 ft 335 kts 264°
2026-05-07 17:28 45.96394 -71.95357 23013 ft 329 kts 264°
2026-05-07 17:28 45.96299 -71.98559 22654 ft 323 kts 264°
2026-05-07 17:29 45.96204 -72.01746 22319 ft 317 kts 264°
2026-05-07 17:29 45.96107 -72.04936 21984 ft 319 kts 264°
2026-05-07 17:29 45.96011 -72.08079 21662 ft 319 kts 265°
2026-05-07 17:29 45.95913 -72.11285 21305 ft 320 kts 265°
2026-05-07 17:30 45.95815 -72.14445 20971 ft 317 kts 264°
2026-05-07 17:30 45.95716 -72.17616 20612 ft 318 kts 265°
2026-05-07 17:30 45.95616 -72.20761 20283 ft 314 kts 265°
2026-05-07 17:30 45.95516 -72.23896 19943 ft 317 kts 265°
2026-05-07 17:31 45.95416 -72.27033 19616 ft 315 kts 265°
2026-05-07 17:31 45.95314 -72.30158 19267 ft 314 kts 265°
2026-05-07 17:31 45.95212 -72.33295 18930 ft 314 kts 265°
2026-05-07 17:31 45.95110 -72.36396 18595 ft 313 kts 266°
2026-05-07 17:32 45.94980 -72.39513 18247 ft 312 kts 261°
2026-05-07 17:32 45.94276 -72.42426 17856 ft 311 kts 243°
2026-05-07 17:32 45.93261 -72.45127 17476 ft 309 kts 244°
2026-05-07 17:32 45.92590 -72.46936 17189 ft 310 kts 244°
2026-05-07 17:33 45.91248 -72.50548 16619 ft 306 kts 244°
2026-05-07 17:33 45.90259 -72.53205 16202 ft 305 kts 244°
2026-05-07 17:33 45.89261 -72.55883 15793 ft 304 kts 244°
2026-05-07 17:33 45.88264 -72.58555 15358 ft 305 kts 244°
2026-05-07 17:34 45.87262 -72.61240 14930 ft 304 kts 244°
2026-05-07 17:34 45.86275 -72.63880 14495 ft 302 kts 244°
2026-05-07 17:34 45.85281 -72.66540 14052 ft 301 kts 243°
2026-05-07 17:34 45.84302 -72.69168 13613 ft 299 kts 244°
2026-05-07 17:35 45.83340 -72.71756 13183 ft 297 kts 244°
2026-05-07 17:35 45.82361 -72.74403 12736 ft 299 kts 244°
2026-05-07 17:35 45.81395 -72.77012 12298 ft 298 kts 243°
2026-05-07 17:35 45.80433 -72.79607 11826 ft 296 kts 249°
2026-05-07 17:36 45.79748 -72.82388 11168 ft 300 kts 253°
2026-05-07 17:36 45.79078 -72.85236 10702 ft 298 kts 253°
2026-05-07 17:36 45.78436 -72.88017 10434 ft 291 kts 253°
2026-05-07 17:36 45.77819 -72.90710 10225 ft 282 kts 253°
2026-05-07 17:37 45.77221 -72.93323 9963 ft 277 kts 254°
2026-05-07 17:37 45.76628 -72.95926 9483 ft 268 kts 254°
2026-05-07 17:37 45.76063 -72.98404 9264 ft 257 kts 254°
2026-05-07 17:37 45.75510 -73.00826 8945 ft 256 kts 254°
2026-05-07 17:38 45.74961 -73.03232 8660 ft 254 kts 254°
2026-05-07 17:38 45.74417 -73.05613 8383 ft 252 kts 254°
2026-05-07 17:38 45.73879 -73.07966 8124 ft 249 kts 254°
2026-05-07 17:38 45.73341 -73.10316 7877 ft 246 kts 254°
2026-05-07 17:39 45.72815 -73.12606 7633 ft 243 kts 254°
2026-05-07 17:39 45.72288 -73.14909 7383 ft 240 kts 254°
2026-05-07 17:39 45.71769 -73.17168 7147 ft 238 kts 254°
2026-05-07 17:39 45.71262 -73.19374 6912 ft 235 kts 254°
2026-05-07 17:40 45.70751 -73.21596 6679 ft 233 kts 254°
2026-05-07 17:40 45.70246 -73.23784 6447 ft 230 kts 254°
2026-05-07 17:40 45.69748 -73.25941 6217 ft 228 kts 254°
2026-05-07 17:40 45.69255 -73.28078 5981 ft 227 kts 254°
2026-05-07 17:41 45.68762 -73.30207 5747 ft 225 kts 254°
2026-05-07 17:41 45.68274 -73.32317 5509 ft 224 kts 254°
2026-05-07 17:41 45.67790 -73.34409 5265 ft 223 kts 254°
2026-05-07 17:41 45.67303 -73.36507 5020 ft 222 kts 254°
2026-05-07 17:42 45.66819 -73.38597 4766 ft 222 kts 254°
2026-05-07 17:42 45.66333 -73.40686 4497 ft 222 kts 254°
2026-05-07 17:42 45.65850 -73.42759 4425 ft 214 kts 255°
2026-05-07 17:42 45.65382 -73.44778 4352 ft 214 kts 254°
2026-05-07 17:43 45.64916 -73.46778 4276 ft 208 kts 254°
2026-05-07 17:43 45.64468 -73.48695 4199 ft 200 kts 255°
2026-05-07 17:43 45.64045 -73.50507 4109 ft 184 kts 255°
2026-05-07 17:43 45.63664 -73.52132 4065 ft 165 kts 255°
2026-05-07 17:44 45.63331 -73.53563 4103 ft 140 kts 256°
2026-05-07 17:44 45.62766 -73.54672 3825 ft 138 kts 228°
2026-05-07 17:44 45.62058 -73.55583 3616 ft 136 kts 231°
2026-05-07 17:44 45.61369 -73.56509 3429 ft 137 kts 230°
2026-05-07 17:45 45.60674 -73.57428 3245 ft 137 kts 231°
2026-05-07 17:45 45.59982 -73.58342 3062 ft 134 kts 231°
2026-05-07 17:45 45.59296 -73.59244 2969 ft 132 kts 231°
2026-05-07 17:45 45.58610 -73.60150 2883 ft 135 kts 231°
2026-05-07 17:46 45.57928 -73.61041 2706 ft 134 kts 230°
2026-05-07 17:46 45.57237 -73.61949 2528 ft 134 kts 231°
2026-05-07 17:46 45.56554 -73.62849 2350 ft 133 kts 230°
2026-05-07 17:46 45.55868 -73.63750 2170 ft 136 kts 231°
2026-05-07 17:47 45.55175 -73.64656 1988 ft 137 kts 230°
2026-05-07 17:47 45.54485 -73.65555 1823 ft 134 kts 230°
2026-05-07 17:47 45.53798 -73.66445 1631 ft 130 kts 231°
2026-05-07 17:47 45.53127 -73.67325 1453 ft 130 kts 230°
2026-05-07 17:48 45.52464 -73.68189 1269 ft 132 kts 230°
2026-05-07 17:48 45.51794 -73.69064 1093 ft 132 kts 230°
2026-05-07 17:48 45.51116 -73.69958 916 ft 133 kts 230°
2026-05-07 17:48 45.50438 -73.70842 723 ft 133 kts 230°
2026-05-07 17:49 45.49762 -73.71725 553 ft 132 kts 232°
2026-05-07 17:49 45.49094 -73.72607 400 ft 132 kts 232°
2026-05-07 17:49 45.48428 -73.73448 203 ft 122 kts 229°
2026-05-07 17:49 45.47773 -73.74284 155 ft 130 kts 229°
2026-05-07 17:50 45.47230 -73.75035 120 ft 84 kts 220°
2026-05-07 17:50 45.46836 -73.75514 118 ft 52 kts 208°
2026-05-07 17:50 45.46563 -73.75631 115 ft 34 kts 192°
2026-05-07 17:50 45.46334 -73.75702 115 ft 32 kts 189°
2026-05-07 17:51 45.46163 -73.75680 112 ft 22 kts 141°
2026-05-07 17:51 45.46102 -73.75508 112 ft 14 kts 103°
2026-05-07 17:51 45.46055 -73.75429 112 ft 8 kts 176°
2026-05-07 17:51 45.46027 -73.75440 112 ft 2 kts 171°
2026-05-07 17:52 45.45994 -73.75416 112 ft 7 kts 169°
2026-05-07 17:52 45.45981 -73.75417 112 ft 0 kts 193°